Location: La Caoriana
(44.9833°N, 10.9833°E)
Time: 23:10:58
(UTC+00:00)

Daily predictions for brighter satellites

Satellite Brightness Start Highest point End
(mag) Time Altitude Azimuth Time Altitude Azimuth Time Altitude Azimuth
BREEZE-M DEB (TANK) 3.8 17:00:52 10° SW 17:04:38 58° SE 17:17:38 10° ENE
BREEZE-M DEB (TANK) 1.9 17:17:07 10° WNW 17:19:14 64° NNE 17:22:16 10° ESE
Cosmos 1674 3.6 17:17:10 10° NNW 17:20:48 52° W 17:24:24 10° S
Cosmos 1975 4.4 17:20:20 10° SSW 17:24:09 41° WNW 17:28:00 10° N
COSMO-SKYMED 1 2.5 17:22:02 10° NNE 17:26:23 76° ESE 17:30:44 10° S
Cosmos 2263 Rocket 2.2 17:20:51 10° NNW 17:26:33 68° ENE 17:32:12 10° SE
Cosmos 1437 Rocket 3.9 17:26:38 10° SE 17:29:27 21° E 17:32:17 10° NE
HJ-1C 4.2 17:28:56 10° SE 17:31:35 26° ENE 17:34:15 10° NNE
Spot 1 4.1 17:27:48 10° NNE 17:31:52 49° E 17:35:49 10° S
Cosmos 1741 Rocket 4.0 17:26:54 10° SSW 17:32:12 87° ESE 17:37:29 10° NNE
ASTEX 1 3.4 17:27:24 10° N 17:32:24 72° E 17:37:23 10° S
USA 267 3.3 17:28:47 10° ESE 17:35:21 79° NE 17:41:55 10° NW
Cosmos 1626 4.2 17:34:03 10° NNW 17:37:18 32° W 17:40:33 10° SSW
Cosmos 1814 Rocket 4.2 17:32:54 10° NNW 17:38:03 53° ENE 17:43:06 10° SE
SL-4 R/B 2.3 17:33:45 10° WNW 17:38:09 69° NNE 17:42:27 12° ESE
Cosmos 1805 3.5 17:37:00 10° SSW 17:40:52 75° W 17:44:45 10° N
Cosmos 1242 Rocket 3.6 17:38:45 10° SSW 17:42:11 48° WNW 17:45:38 10° N
IRIDIUM 114 4.4 17:38:42 10° SSE 17:43:45 53° E 17:48:50 10° NNE
Cosmos 2227 4.3 17:38:18 10° NNW 17:43:50 56° ENE 17:49:21 10° SE
Okean-O 4.3 17:42:55 13° E 17:44:36 16° ENE 17:47:17 10° NNE
CZ-4 R/B 2.0 17:43:15 10° SE 17:47:08 38° ENE 17:51:01 10° N
Cosmos 1697 Rocket 4.5 17:42:38 10° WSW 17:47:38 33° NW 17:52:41 10° N
ISS -2.8 17:44:49 10° WNW 17:48:03 44° SW 17:51:17 10° SE
Meteor 1-12 Rocket 4.4 17:44:03 10° S 17:49:53 56° E 17:55:46 10° NNE
BREEZE M DEB (TANK) 3.7 17:43:03 10° SW 17:50:46 36° SSE 17:53:02 18° E
Cosmos 1908 Rocket 3.7 17:48:20 10° SSE 17:52:30 49° E 17:56:41 10° NNE
IRIDIUM 103 4.3 17:47:43 10° S 17:52:52 65° E 17:58:03 10° N
Meteor 2-21 4.4 17:47:00 10° S 17:53:00 77° E 17:59:04 10° NNE
OBJECT-B 2.7 17:54:14 11° NE 17:54:14 11° NE 17:54:24 10° NE
MOS 1-B 4.3 17:47:18 10° SSE 17:53:07 85° ENE 17:58:57 10° NNW
Cosmos 1733 4.5 17:50:50 10° SSW 17:54:24 44° WNW 17:58:01 10° N
Cosmos 2360 Rocket 3.3 17:50:39 10° SSE 17:54:41 21° E 17:58:45 10° NE
SL-14 R/B 3.7 17:50:46 10° NNW 17:54:43 67° W 17:58:41 10° S
Cosmos 1766 3.2 17:56:47 10° S 18:00:41 88° E 18:04:39 10° N
Cosmos 1782 Rocket 4.2 17:56:54 10° SSE 18:00:46 32° E 18:04:39 10° NNE
Cosmos 1674 Rocket 3.9 17:59:34 10° NNW 18:03:58 69° W 18:08:22 10° S
YAOGAN 1 2.5 18:01:02 10° SSE 18:05:21 86° ENE 18:09:42 10° NNW
Cosmos 1025 Rocket 3.9 18:02:52 10° NNE 18:06:37 28° ENE 18:07:56 24° ESE
Cosmos 2026 Rocket 4.3 18:01:10 10° SSE 18:06:44 40° E 18:12:20 10° NNE
Cosmos 968 Rocket 3.4 18:02:15 10° S 18:07:26 64° ESE 18:12:36 10° NNE
Okean O Rocket 1.5 18:04:50 10° SSE 18:09:11 78° ENE 18:13:35 10° N
IRIDIUM 106 4.3 18:05:56 10° S 18:11:09 88° W 18:16:24 10° N
Lacrosse 4 Rocket 1.9 18:08:39 10° S 18:12:19 34° ESE 18:13:56 24° ENE
Nadezhda 4 Rocket 4.0 18:08:12 10° S 18:14:32 88° W 18:20:53 10° N
Meteor 1-15 Rocket 4.1 18:10:46 10° S 18:16:19 78° E 18:21:53 10° NNE
Meteor 2-5 Rocket 3.7 18:10:55 10° N 18:16:25 61° ENE 18:21:54 10° SSE
CSL-04 Rocket 4.1 18:13:27 21° ESE 18:16:28 39° ENE 18:21:27 10° N
USA 186 2.6 18:22:41 34° NE 18:22:41 34° NE 18:25:25 10° N
Cosmos 1726 3.8 18:19:36 10° SW 18:22:58 35° WNW 18:26:21 10° N
Cosmos 2285 Rocket 4.1 18:16:39 10° NNW 18:23:01 82° WSW 18:29:25 10° SSE
Cosmos 2322 Rocket 2.3 18:17:47 10° S 18:23:19 53° ESE 18:28:51 10° NE
Cosmos 2237 4.2 18:18:22 10° S 18:23:54 56° ESE 18:29:28 10° NE
Cosmos 1470 2.5 18:23:41 10° S 18:27:30 71° E 18:31:21 10° NNE
CZ-4B R/B 3.8 18:22:25 10° S 18:27:42 57° W 18:33:07 10° NNW
Cosmos 1980 Rocket 4.1 18:24:50 10° WSW 18:29:46 30° NW 18:34:43 10° N
NOSS 3-3 (A) 4.3 18:26:05 10° S 18:31:00 35° ESE 18:32:26 31° E
NOSS 3-3 (C) 4.3 18:26:13 10° S 18:31:07 34° ESE 18:32:21 31° E
Cosmos 1975 Rocket 3.1 18:27:27 10° N 18:31:47 54° ENE 18:33:09 38° SE
CRYOSAT 2 4.3 18:34:18 23° SSE 18:37:16 59° E 18:42:06 10° N
Cosmos 2292 Rocket 3.9 18:32:27 10° SSW 18:37:44 73° W 18:41:43 10° N
USA 215 4.2 18:37:12 10° NE 18:43:18 43° NNW 18:49:24 10° W
IRS-1C Rocket 4.1 18:43:42 40° SE 18:45:20 57° ENE 18:50:29 10° N
Cosmos 1844 Rocket 2.6 18:45:41 10° NNW 18:51:22 68° ENE 18:52:59 46° SE
SL-16 R/B 2.5 18:47:59 10° SW 18:53:37 67° WNW 18:59:17 10° NNE
Cosmos 1092 Rocket 4.1 18:49:45 10° SSW 18:56:04 76° W 19:02:21 10° N
Landsat 5 3.5 18:51:52 10° NNE 18:56:23 90° WNW 19:00:48 10° SSW
Resurs 01 Rocket 3.2 19:01:19 23° NNE 19:01:19 23° NNE 19:03:24 10° N
SJ-6B 2.9 19:02:07 69° NW 19:02:07 69° NW 19:05:36 10° NNW
Cosmos 836 Rocket 4.4 18:57:23 10° NNW 19:02:43 78° ENE 19:03:34 62° SE
H-2A R/B 4.2 19:07:11 20° N 19:07:11 20° N 19:08:34 10° N
Cosmos 2278 Rocket 4.0 19:02:43 10° N 19:05:41 16° NE 19:05:41 16° NE
Resurs 1-3 3.7 19:11:26 68° N 19:11:26 68° N 19:15:17 10° NNW
Meteor 1-24 Rocket 4.3 19:06:29 10° NNW 19:11:38 52° W 19:16:12 13° SSW
SL-4 R/B 3.6 19:13:28 10° WNW 19:17:28 31° SW 19:17:51 30° SSW
Cosmos 2084 Rocket 4.4 19:16:49 10° NW 19:19:51 41° W 19:19:51 41° W
Okean-O 3.0 19:20:29 60° WSW 19:20:36 60° W 19:25:00 10° NNW
CZ-4 R/B 4.0 19:19:05 10° SW 19:22:11 20° W 19:25:17 10° NW
Cosmos 1486 Rocket 4.1 19:17:35 10° SSW 19:22:53 74° WNW 19:28:15 10° NNE
IGS 5A 4.3 19:24:37 46° W 19:24:37 46° W 19:28:34 10° NNW
Cosmos 1844 3.6 19:20:17 10° NNW 19:25:51 78° WSW 19:26:12 74° SSW
DNEPR-1 R/B 4.4 19:22:53 10° SW 19:27:32 59° NW 19:30:36 25° NNE
Cosmos 2333 Rocket 4.5 19:24:05 10° SSW 19:36:34 - NNE 19:24:21 11° SSW
Cosmos 1300 Rocket 4.4 19:30:14 48° WNW 19:30:14 48° WNW 19:34:18 10° N
S3M 4.1 19:24:44 10° N 19:30:10 59° NE 19:30:10 59° NE
Cosmos 2360 Rocket 2.5 19:32:34 10° SW 19:38:09 63° WNW 19:43:46 10° NNE
Lacrosse 4 Rocket 3.5 19:47:27 10° WSW 19:50:17 25° WNW 19:50:17 25° WNW
ATLAS 2AS CENTAUR R/B 4.1 19:55:35 10° NNW 20:01:24 25° NNE 20:01:35 25° NNE
Cosmos 2322 Rocket 4.1 20:02:48 10° WSW 20:07:39 28° NW 20:12:32 10° N
NOSS 3-4 (A) 4.1 20:06:18 10° NW 20:12:04 61° N 20:12:04 61° N
NOSS 3-4 (C) 4.1 20:06:25 10° NW 20:12:10 60° N 20:12:10 60° N
USA 281 4.3 20:27:40 35° N 20:27:40 35° N 20:31:36 10° NNW
Cosmos 2278 Rocket 4.3 20:45:35 10° NNW 20:47:32 22° NNW 20:47:32 22° NNW
